Location: Cadeilhan
(42.8161°N, 0.3161°E)
Time: 08:10:41
(UTC+00:00)

SKYMED 2 - Pass Details

Date: 18 February 2020
Orbit: 621 x 623 km, 97.9° (Epoch: 03 April)

Event Time Altitude Azimuth Distance (km) Brightness Sun altitude
Rises 05:04:36 0° 163° (SSE) 2,890 7.2 -20.5°
Reaches altitude 10° 05:06:47 10° 163° (SSE) 1,988 6.3 -20.1°
Maximum altitude 05:11:06 82° 76° (ENE) 636 3.6 -19.3°
Drops below altitude 10° 05:15:28 10° 349° (N) 2,004 6.1 -18.5°
Sets 05:17:40 0° 349° (NNW) 2,915 6.9 -18.1°
